Millville, NJ

8:16 AM EST on December 08, 2019 (GMT -0500)
Millville Municipal

Weather History for KMIV - October, 2019

Change the Weather History Date:

Wednesday, October 9, 2019

  Actual Average Record
Temperature  
Mean Temperature 57 °F -  
Max Temperature 62 °F 69 °F 89 °F (2007)
Min Temperature 53 °F 47 °F 26 °F (2001)
Degree Days  
Heating Degree Days 8    
Growing Degree Days 7 (Base 50)    
Moisture  
Dew Point 50 °F    
Average Humidity 77    
Maximum Humidity 93    
Minimum Humidity 62    
Precipitation  
Precipitation 0.02 in - - ()
Sea Level Pressure  
Sea Level Pressure 30.20 in    
Wind  
Wind Speed 12 mph (NNE)    
Max Wind Speed 17 mph    
Max Gust Speed 25 mph    
Visibility 9 miles    
Events Rain    
Averages and records for this station are not official NWS values.
T = Trace of Precipitation, MM = Missing Value Source: NWS Daily Summary

Daily Weather History Graph

Daily Weather History Graph

Search for Another Location

Airport or City:

Astronomy

Oct. 09, 2019 Rise Set
Actual Time 7:03 AM EDT 6:30 PM EDT
Civil Twilight 6:37 AM EDT 6:57 PM EDT
Nautical Twilight 6:05 AM EDT 7:28 PM EDT
Astronomical Twilight 5:34 AM EDT 7:59 PM EDT
Moon 4:59 PM EDT (10/9) 2:50 AM EDT (10/9)
Length of Visible Light 12h 20m
Length of Day
11h 26m
Waxing Gibbous, 85% of the Moon is Illuminated
Oct 9
Waxing Gibbous
Oct 13
Full
Oct 21
Last Quarter
Oct 27
New
Nov 4
First Quarter

Hourly Weather History & Observations

Time (EDT) Temp. Dew Point Humidity Pressure Visibility Wind Dir Wind Speed Gust Speed Precip Events Conditions
12:54 AM 59.0 °F 48.0 °F 67% 30.16 in 10.0 mi North 10.4 mph - N/A   Overcast
1:54 AM 59.0 °F 48.0 °F 67% 30.16 in 10.0 mi NNE 10.4 mph - N/A   Overcast
2:54 AM 59.0 °F 48.0 °F 67% 30.15 in 10.0 mi NNE 9.2 mph - N/A   Overcast
3:54 AM 59.0 °F 48.0 °F 67% 30.14 in 10.0 mi NNE 11.5 mph - N/A   Scattered Clouds
4:54 AM 59.0 °F 48.0 °F 67% 30.14 in 10.0 mi NNE 13.8 mph - 0.00 in   Scattered Clouds
5:54 AM 59.0 °F 46.9 °F 64% 30.17 in 10.0 mi NNE 12.7 mph - N/A   Overcast
6:54 AM 59.0 °F 46.0 °F 62% 30.18 in 10.0 mi North 10.4 mph - N/A   Overcast
7:54 AM 57.0 °F 48.0 °F 72% 30.20 in 10.0 mi NNE 13.8 mph - N/A   Overcast
8:54 AM 55.9 °F 50.0 °F 80% 30.22 in 10.0 mi NNE 10.4 mph - 0.00 in Rain Light Rain
9:54 AM 57.9 °F 51.1 °F 78% 30.21 in 10.0 mi NE 12.7 mph 23.0 mph 0.00 in   Overcast
10:54 AM 60.1 °F 51.1 °F 72% 30.22 in 10.0 mi NE 17.3 mph 24.2 mph N/A   Overcast
11:54 AM 61.0 °F 51.1 °F 70% 30.22 in 10.0 mi NNE 16.1 mph 23.0 mph N/A   Overcast
12:54 PM 59.0 °F 51.1 °F 75% 30.22 in 10.0 mi NE 12.7 mph - N/A   Overcast
1:12 PM 59.0 °F 51.1 °F 75% 30.22 in 10.0 mi NNE 16.1 mph 20.7 mph N/A   Overcast
1:36 PM 59.0 °F 50.0 °F 72% 30.22 in 10.0 mi NE 17.3 mph 24.2 mph N/A   Overcast
1:54 PM 60.1 °F 50.0 °F 69% 30.21 in 10.0 mi NE 16.1 mph 25.3 mph N/A   Overcast
2:54 PM 59.0 °F 48.9 °F 69% 30.21 in 10.0 mi NNE 12.7 mph - N/A   Overcast
3:54 PM 57.9 °F 48.9 °F 72% 30.21 in 10.0 mi NNE 16.1 mph - N/A   Overcast
4:54 PM 55.9 °F 51.1 °F 84% 30.21 in 9.0 mi NNE 10.4 mph - N/A   Overcast
5:54 PM 55.9 °F 48.9 °F 77% 30.21 in 10.0 mi North 12.7 mph 19.6 mph N/A   Overcast
6:32 PM 55.0 °F 50.0 °F 83% 30.21 in 10.0 mi North 10.4 mph - N/A   Overcast
6:54 PM 54.0 °F 51.1 °F 90% 30.21 in 4.0 mi North 9.2 mph - 0.00 in Rain Light Rain
7:24 PM 54.0 °F 51.1 °F 90% 30.22 in 4.0 mi North 10.4 mph - 0.00 in   Overcast
7:54 PM 53.1 °F 51.1 °F 93% 30.22 in 4.0 mi North 11.5 mph 18.4 mph 0.00 in   Overcast
8:54 PM 53.1 °F 51.1 °F 93% 30.22 in 4.0 mi North 9.2 mph - 0.02 in Rain Light Rain
9:29 PM 53.1 °F 50.0 °F 89% 30.22 in 10.0 mi North 8.1 mph - 0.00 in   Overcast
9:54 PM 53.1 °F 50.0 °F 89% 30.22 in 10.0 mi North 6.9 mph - 0.00 in   Overcast
10:16 PM 53.1 °F 50.0 °F 89% 30.23 in 10.0 mi North 9.2 mph - N/A   Overcast
10:54 PM 53.1 °F 50.0 °F 89% 30.23 in 10.0 mi North 9.2 mph - N/A   Overcast
11:54 PM 53.1 °F 48.9 °F 86% 30.22 in 10.0 mi North 10.4 mph - N/A   Overcast